VIASAT-1

Last updated on Thu Jul 03 2025 00:02:45 GMT+0000 (Coordinated Universal Time)

1 37843U 11059A 25183.54377198 -.00000016 00000+0 00000+0 0 9990 2 37843 0.0211 17.3820 0002459 79.5924 264.4926 1.00268894 43815
UTC large
Height (km)
Speed (km/s)
/
Latitude / Longitude
Inclination (degrees)
Orbital Period (minutes)
Azimuth
Elevation
Range (km)
Doppler Factor

Next 0 passes for location: London (51.5072 / 0.1276)

Sorry there are no passes over London.